| time (UTC) | temp F | wind direction | speed MPH | gust MPH | rain 1hr in | rain 24hr in | rain mn in | humidity % | barometer mb |
| 20260507023521 | 78 | 0.0 | 0.0 | 0.00 | 0.00 | 0.00 | 23 | 1013.0 | |
| 20260507022516 | 79 | 0.0 | 1.0 | 0.00 | 0.00 | 0.00 | 22 | 1013.0 | |
| 20260507021517 | 79 | 269 | 1.0 | 3.0 | 0.00 | 0.00 | 0.00 | 22 | 1012.8 |
| 20260507020516 | 80 | 279 | 0.0 | 1.0 | 0.00 | 0.00 | 0.00 | 21 | 1012.8 |
| 20260507015536 | 81 | 276 | 0.0 | 4.0 | 0.00 | 0.00 | 0.00 | 21 | 1012.7 |
| 20260507014516 | 82 | 299 | 1.0 | 3.0 | 0.00 | 0.00 | 0.00 | 20 | 1012.8 |
| 20260507013538 | 82 | 283 | 1.0 | 4.0 | 0.00 | 0.00 | 0.00 | 20 | 1012.8 |
| 20260507012515 | 82 | 285 | 1.0 | 4.0 | 0.00 | 0.00 | 0.00 | 20 | 1012.7 |
| 20260507011517 | 83 | 292 | 3.0 | 5.0 | 0.00 | 0.00 | 0.00 | 20 | 1012.7 |
| 20260507010555 | 83 | 275 | 0.0 | 2.0 | 0.00 | 0.00 | 0.00 | 20 | 1012.8 |
| 20260507005516 | 83 | 276 | 1.0 | 6.0 | 0.00 | 0.00 | 0.00 | 20 | 1012.7 |
| 20260507004515 | 83 | 308 | 0.0 | 6.0 | 0.00 | 0.00 | 0.00 | 20 | 1012.7 |
| 20260507003515 | 84 | 303 | 2.0 | 6.0 | 0.00 | 0.00 | 0.00 | 20 | 1012.7 |
| 20260507002515 | 83 | 324 | 2.0 | 4.0 | 0.00 | 0.00 | 0.00 | 20 | 1012.6 |
| 20260507001535 | 83 | 340 | 1.0 | 6.0 | 0.00 | 0.00 | 0.00 | 20 | 1012.6 |
| 20260507000536 | 83 | 321 | 3.0 | 8.0 | 0.00 | 0.00 | 0.00 | 20 | 1012.7 |
| 20260506235515 | 83 | 291 | 5.0 | 9.0 | 0.00 | 0.00 | 0.00 | 20 | 1012.6 |
| 20260506234535 | 82 | 308 | 1.0 | 6.0 | 0.00 | 0.00 | 0.00 | 20 | 1012.6 |
| 20260506233516 | 82 | 280 | 1.0 | 7.0 | 0.00 | 0.00 | 0.00 | 20 | 1012.7 |
| 20260506232535 | 83 | 270 | 2.0 | 6.0 | 0.00 | 0.00 | 0.00 | 21 | 1012.8 |
| 20260506231535 | 82 | 310 | 3.0 | 9.0 | 0.00 | 0.00 | 0.00 | 21 | 1012.9 |
| 20260506230536 | 83 | 318 | 2.0 | 5.0 | 0.00 | 0.00 | 0.00 | 20 | 1013.0 |
| 20260506225515 | 82 | 58 | 1.0 | 7.0 | 0.00 | 0.00 | 0.00 | 20 | 1013.1 |
| 20260506224535 | 82 | 4 | 1.0 | 9.0 | 0.00 | 0.00 | 0.00 | 19 | 1013.2 |
| 20260506223516 | 82 | 314 | 3.0 | 8.0 | 0.00 | 0.00 | 0.00 | 20 | 1013.4 |
| 20260506222535 | 82 | 286 | 5.0 | 10.0 | 0.00 | 0.00 | 0.00 | 20 | 1013.5 |
| 20260506221516 | 81 | 303 | 1.0 | 6.0 | 0.00 | 0.00 | 0.00 | 22 | 1013.6 |
| 20260506220515 | 81 | 306 | 1.0 | 7.0 | 0.00 | 0.00 | 0.00 | 22 | 1013.7 |
| 20260506215516 | 81 | 302 | 5.0 | 11.0 | 0.00 | 0.00 | 0.00 | 22 | 1013.8 |
| 20260506214515 | 81 | 255 | 3.0 | 7.0 | 0.00 | 0.00 | 0.00 | 22 | 1014.0 |
| 20260506213516 | 81 | 285 | 3.0 | 11.0 | 0.00 | 0.00 | 0.00 | 22 | 1014.2 |
| 20260506212516 | 82 | 287 | 3.0 | 7.0 | 0.00 | 0.00 | 0.00 | 22 | 1014.4 |
| 20260506211515 | 80 | 256 | 3.0 | 10.0 | 0.00 | 0.00 | 0.00 | 23 | 1014.5 |
| 20260506210515 | 80 | 105 | 1.0 | 8.0 | 0.00 | 0.00 | 0.00 | 23 | 1014.6 |
| 20260506205517 | 80 | 300 | 3.0 | 10.0 | 0.00 | 0.00 | 0.00 | 24 | 1014.7 |
| 20260506204515 | 79 | 268 | 1.0 | 7.0 | 0.00 | 0.00 | 0.00 | 24 | 1014.9 |
| 20260506203515 | 79 | 238 | 2.0 | 6.0 | 0.00 | 0.00 | 0.00 | 24 | 1015.0 |
| 20260506202536 | 79 | 329 | 2.0 | 9.0 | 0.00 | 0.00 | 0.00 | 25 | 1015.1 |
| 20260506201515 | 79 | 327 | 4.0 | 12.0 | 0.00 | 0.00 | 0.00 | 24 | 1015.1 |
| 20260506200615 | 78 | 36 | 0.0 | 6.0 | 0.00 | 0.00 | 0.00 | 25 | 1015.2 |
| 20260506195515 | 78 | 302 | 3.0 | 10.0 | 0.00 | 0.00 | 0.00 | 25 | 1015.3 |
| 20260506194515 | 79 | 314 | 4.0 | 9.0 | 0.00 | 0.00 | 0.00 | 25 | 1015.5 |
| 20260506193515 | 78 | 63 | 2.0 | 7.0 | 0.00 | 0.00 | 0.00 | 25 | 1015.5 |
| 20260506192536 | 78 | 310 | 3.0 | 7.0 | 0.00 | 0.00 | 0.00 | 25 | 1015.7 |
| 20260506191515 | 77 | 283 | 1.0 | 8.0 | 0.00 | 0.00 | 0.00 | 25 | 1015.9 |
| 20260506190514 | 77 | 78 | 1.0 | 7.0 | 0.00 | 0.00 | 0.00 | 26 | 1015.9 |
| 20260506185515 | 77 | 337 | 3.0 | 8.0 | 0.00 | 0.00 | 0.00 | 26 | 1016.1 |
| 20260506184517 | 76 | 359 | 2.0 | 7.0 | 0.00 | 0.00 | 0.00 | 26 | 1016.2 |
| 20260506183515 | 76 | 286 | 1.0 | 8.0 | 0.00 | 0.00 | 0.00 | 26 | 1016.3 |
| 20260506182517 | 76 | 280 | 3.0 | 9.0 | 0.00 | 0.00 | 0.00 | 26 | 1016.5 |
| 20260506181515 | 76 | 288 | 1.0 | 5.0 | 0.00 | 0.00 | 0.00 | 28 | 1016.6 |
| 20260506180538 | 75 | 333 | 2.0 | 5.0 | 0.00 | 0.00 | 0.00 | 31 | 1016.6 |
| 20260506175537 | 75 | 285 | 2.0 | 7.0 | 0.00 | 0.00 | 0.00 | 30 | 1016.7 |
| 20260506174516 | 74 | 271 | 1.0 | 6.0 | 0.00 | 0.00 | 0.00 | 30 | 1016.7 |
| 20260506173517 | 75 | 279 | 1.0 | 5.0 | 0.00 | 0.00 | 0.00 | 31 | 1016.7 |
| 20260506172516 | 74 | 286 | 1.0 | 5.0 | 0.00 | 0.00 | 0.00 | 31 | 1016.6 |
| 20260506171520 | 73 | 268 | 1.0 | 5.0 | 0.00 | 0.00 | 0.00 | 33 | 1016.6 |
| 20260506170518 | 74 | 312 | 0.0 | 3.0 | 0.00 | 0.00 | 0.00 | 32 | 1016.7 |
| 20260506165518 | 73 | 283 | 1.0 | 4.0 | 0.00 | 0.00 | 0.00 | 33 | 1016.7 |
| 20260506164516 | 72 | 212 | 0.0 | 4.0 | 0.00 | 0.00 | 0.00 | 34 | 1016.6 |
| 20260506163517 | 71 | 313 | 0.0 | 3.0 | 0.00 | 0.00 | 0.00 | 35 | 1016.6 |
| 20260506162517 | 70 | 348 | 1.0 | 4.0 | 0.00 | 0.00 | 0.00 | 36 | 1016.6 |
| 20260506161516 | 70 | 297 | 2.0 | 6.0 | 0.00 | 0.00 | 0.00 | 35 | 1016.6 |
| 20260506160517 | 70 | 344 | 0.0 | 1.0 | 0.00 | 0.00 | 0.00 | 36 | 1016.6 |
| 20260506155517 | 70 | 51 | 0.0 | 3.0 | 0.00 | 0.00 | 0.00 | 38 | 1016.7 |
| 20260506154517 | 69 | 81 | 1.0 | 4.0 | 0.00 | 0.00 | 0.00 | 39 | 1016.7 |
| 20260506153516 | 68 | 84 | 2.0 | 4.0 | 0.00 | 0.00 | 0.00 | 39 | 1016.7 |
| 20260506152537 | 68 | 117 | 1.0 | 3.0 | 0.00 | 0.00 | 0.00 | 41 | 1016.6 |
| 20260506151516 | 67 | 117 | 1.0 | 3.0 | 0.00 | 0.00 | 0.00 | 42 | 1016.5 |
| 20260506150518 | 65 | 143 | 1.0 | 3.0 | 0.00 | 0.00 | 0.00 | 44 | 1016.5 |
| 20260506145517 | 64 | 130 | 1.0 | 4.0 | 0.00 | 0.00 | 0.00 | 45 | 1016.4 |
| 20260506144516 | 64 | 132 | 2.0 | 4.0 | 0.00 | 0.00 | 0.00 | 46 | 1016.3 |
| 20260506143516 | 63 | 131 | 1.0 | 4.0 | 0.00 | 0.00 | 0.00 | 48 | 1016.2 |
| 20260506142517 | 61 | 134 | 1.0 | 4.0 | 0.00 | 0.00 | 0.00 | 48 | 1016.2 |
| 20260506141518 | 60 | 127 | 1.0 | 3.0 | 0.00 | 0.00 | 0.00 | 49 | 1016.0 |
| 20260506140517 | 59 | 137 | 0.0 | 3.0 | 0.00 | 0.00 | 0.00 | 50 | 1015.9 |
| 20260506135517 | 58 | 133 | 2.0 | 4.0 | 0.00 | 0.00 | 0.00 | 50 | 1015.9 |
| 20260506134517 | 58 | 132 | 1.0 | 4.0 | 0.00 | 0.00 | 0.00 | 50 | 1015.8 |
| 20260506133517 | 57 | 129 | 0.0 | 2.0 | 0.00 | 0.00 | 0.00 | 51 | 1015.7 |
| 20260506132537 | 56 | 128 | 0.0 | 3.0 | 0.00 | 0.00 | 0.00 | 52 | 1015.6 |
| 20260506131517 | 55 | 92 | 0.0 | 2.0 | 0.00 | 0.00 | 0.00 | 53 | 1015.5 |
| 20260506130516 | 54 | 134 | 0.0 | 2.0 | 0.00 | 0.00 | 0.00 | 55 | 1015.4 |
| 20260506125516 | 54 | 133 | 0.0 | 3.0 | 0.00 | 0.00 | 0.00 | 55 | 1015.2 |
| 20260506124516 | 54 | 130 | 1.0 | 3.0 | 0.00 | 0.00 | 0.00 | 53 | 1015.1 |
| 20260506123517 | 54 | 135 | 1.0 | 3.0 | 0.00 | 0.00 | 0.00 | 53 | 1015.0 |
| 20260506122516 | 54 | 130 | 0.0 | 2.0 | 0.00 | 0.00 | 0.00 | 53 | 1014.9 |
| 20260506121516 | 54 | 129 | 0.0 | 2.0 | 0.00 | 0.00 | 0.00 | 52 | 1014.9 |
| 20260506120517 | 55 | 128 | 1.0 | 3.0 | 0.00 | 0.00 | 0.00 | 51 | 1014.8 |
| 20260506115517 | 54 | 128 | 0.0 | 2.0 | 0.00 | 0.00 | 0.00 | 51 | 1014.8 |
| 20260506114518 | 54 | 134 | 0.0 | 1.0 | 0.00 | 0.00 | 0.00 | 50 | 1014.8 |
| 20260506113521 | 54 | 122 | 0.0 | 2.0 | 0.00 | 0.00 | 0.00 | 50 | 1014.7 |
| 20260506112557 | 55 | 70 | 0.0 | 2.0 | 0.00 | 0.00 | 0.00 | 50 | 1014.7 |
| 20260506111517 | 55 | 134 | 1.0 | 3.0 | 0.00 | 0.00 | 0.00 | 50 | 1014.6 |
| 20260506110516 | 55 | 138 | 0.0 | 1.0 | 0.00 | 0.00 | 0.00 | 49 | 1014.5 |
| 20260506105516 | 55 | 144 | 0.0 | 2.0 | 0.00 | 0.00 | 0.00 | 50 | 1014.4 |
| 20260506104516 | 55 | 0.0 | 0.0 | 0.00 | 0.00 | 0.00 | 51 | 1014.3 | |
| 20260506103537 | 56 | 0.0 | 0.0 | 0.00 | 0.00 | 0.00 | 50 | 1014.3 | |
| 20260506102516 | 56 | 0.0 | 0.0 | 0.00 | 0.00 | 0.00 | 48 | 1014.3 | |
| 20260506101536 | 56 | 134 | 1.0 | 3.0 | 0.00 | 0.00 | 0.00 | 48 | 1014.2 |
| 20260506100536 | 57 | 133 | 0.0 | 1.0 | 0.00 | 0.00 | 0.00 | 48 | 1014.2 |
| 20260506095516 | 57 | 0.0 | 2.0 | 0.00 | 0.00 | 0.00 | 47 | 1014.1 | |
| 20260506094516 | 57 | 130 | 1.0 | 3.0 | 0.00 | 0.00 | 0.00 | 46 | 1014.1 |
| 20260506093516 | 57 | 0.0 | 2.0 | 0.00 | 0.00 | 0.00 | 47 | 1014.0 | |
| 20260506092517 | 58 | 79 | 1.0 | 4.0 | 0.00 | 0.00 | 0.00 | 47 | 1014.0 |
| 20260506091516 | 58 | 129 | 0.0 | 1.0 | 0.00 | 0.00 | 0.00 | 48 | 1013.8 |
| 20260506090516 | 58 | 0.0 | 0.0 | 0.00 | 0.00 | 0.00 | 48 | 1013.7 | |
| 20260506085517 | 58 | 0.0 | 1.0 | 0.00 | 0.00 | 0.00 | 47 | 1013.7 | |
| 20260506084516 | 58 | 0.0 | 0.0 | 0.00 | 0.00 | 0.00 | 47 | 1013.7 | |
| 20260506083516 | 59 | 0.0 | 0.0 | 0.00 | 0.00 | 0.00 | 48 | 1013.8 | |
| 20260506082537 | 60 | 0.0 | 0.0 | 0.00 | 0.00 | 0.00 | 47 | 1013.8 | |
| 20260506081516 | 60 | 0.0 | 0.0 | 0.00 | 0.00 | 0.00 | 46 | 1013.8 | |
| 20260506080516 | 60 | 0.0 | 0.0 | 0.00 | 0.00 | 0.00 | 45 | 1013.8 | |
| 20260506072516 | 61 | 0.0 | 0.0 | 0.00 | 0.00 | 0.00 | 45 | 1013.7 | |
| 20260506071516 | 61 | 0.0 | 0.0 | 0.00 | 0.00 | 0.00 | 47 | 1013.6 | |
| 20260506070521 | 61 | 0.0 | 0.0 | 0.00 | 0.00 | 0.00 | 44 | 1013.6 | |
| 20260506062517 | 63 | 0.0 | 0.0 | 0.00 | 0.00 | 0.00 | 40 | 1013.4 | |
| 20260506061515 | 64 | 0.0 | 0.0 | 0.00 | 0.00 | 0.00 | 38 | 1013.4 | |
| 20260506060537 | 65 | 0.0 | 0.0 | 0.00 | 0.00 | 0.00 | 38 | 1013.3 | |
| 20260506050516 | 68 | 274 | 1.0 | 4.0 | 0.00 | 0.00 | 0.00 | 34 | 1013.0 |
| 20260506044538 | 68 | 275 | 2.0 | 5.0 | 0.00 | 0.00 | 0.00 | 33 | 1012.7 |
| 20260506043516 | 68 | 274 | 2.0 | 5.0 | 0.00 | 0.00 | 0.00 | 33 | 1012.6 |
| 20260506042518 | 68 | 274 | 2.0 | 4.0 | 0.00 | 0.00 | 0.00 | 33 | 1012.6 |
| 20260506041516 | 69 | 265 | 1.0 | 4.0 | 0.00 | 0.00 | 0.00 | 32 | 1012.5 |
| 20260506040516 | 69 | 277 | 1.0 | 4.0 | 0.00 | 0.00 | 0.00 | 32 | 1012.4 |
| 20260506035516 | 70 | 271 | 1.0 | 5.0 | 0.00 | 0.00 | 0.00 | 31 | 1012.2 |
| 20260506034515 | 70 | 277 | 2.0 | 5.0 | 0.00 | 0.00 | 0.00 | 31 | 1012.0 |
| 20260506033535 | 70 | 289 | 3.0 | 6.0 | 0.00 | 0.00 | 0.00 | 30 | 1011.8 |
| 20260506032515 | 71 | 288 | 3.0 | 7.0 | 0.00 | 0.00 | 0.00 | 29 | 1011.7 |
| 20260506031515 | 71 | 281 | 3.0 | 6.0 | 0.00 | 0.00 | 0.00 | 29 | 1011.6 |
| 20260506030519 | 71 | 287 | 3.0 | 5.0 | 0.00 | 0.00 | 0.00 | 28 | 1011.3 |
| 20260506025516 | 72 | 291 | 2.0 | 5.0 | 0.00 | 0.00 | 0.00 | 28 | 1011.2 |
| 20260506024515 | 72 | 292 | 3.0 | 8.0 | 0.00 | 0.00 | 0.00 | 28 | 1011.1 |